sat.trackr.live / text

‹ back to catalog

STARLINK-33573

NORAD 62778 · 2025-015W

PAYLOAD ACTIVE UNKNOWN

§ Identity

Operator
Country
US
Launch date
2025-01-21
Launch site
AFWTR
Launch vehicle
Mass (kg)
RCS (m²)

Purposes: comms

External: N2YO · Heavens-Above · Gunter

§ Orbital elements

Epoch: 2026-05-24T18:34:06.517920Z

Period
94.11 min
Inclination
53.1621°
Eccentricity
0.0001048
Mean motion
15.30205111 rev/d
Perigee alt
474.5 km
Apogee alt
475.9 km
Semi-major
6,853.3 km
B*
4.4607e-4
RAAN
328.7852°
Arg perigee
93.8860°
Mean anomaly
266.2261°
Rev number
7,613

§ Raw data

STARLINK-335731 62778U 25015W   26144.77368655  .00012877  00000+0  44607-3 0  99952 62778  53.1621 328.7852 0001048  93.8860 266.2261 15.30205111 76133

JSON: /api/v1/satellites/62778 · /tle

For live sub-satellite position, see the globe view (requires WebGL).

§ Visibility from observer

Set your observer location to see the next 7 days of passes ≥ 10°. The values pass through the URL so the page stays shareable.

No JS? Fill the form by hand. The geolocation button needs JavaScript.